iso_date,epoch_date,Year,Hour,Min,DOY,POS_DOY,Lat,Lon,BP,Ts,Ta,has_bp,has_ts,has_ta,BuoyID,Buoy_Type,Buoy_Owner,Logistics,Hemisphere
2021-03-06T21:54:00Z,1615067640,2021,21,54,65.9125,65.9125,71.19308,-144.99176,-999.00,-999.00,-999.0,no,no,no,300534061098040,unknown,unknown,unknown,North
2021-03-06T22:00:02Z,1615068003,2021,22,0,65.9167,65.9167,71.19319,-144.99359,-999.00,-999.00,-999.0,no,no,no,300534061098040,unknown,unknown,unknown,North
2021-03-06T22:09:59Z,1615068599,2021,22,10,65.9236,65.9236,71.19537,-144.98426,-999.00,-999.00,-999.0,no,no,no,300534061098040,unknown,unknown,unknown,North
2021-03-06T22:20:03Z,1615069204,2021,22,20,65.9306,65.9306,71.25314,-144.77161,-999.00,-999.00,-999.0,no,no,no,300534061098040,unknown,unknown,unknown,North
2021-03-06T22:30:00Z,1615069800,2021,22,30,65.9375,65.9375,71.10871,-144.92348,-999.00,-999.00,-999.0,no,no,no,300534061098040,unknown,unknown,unknown,North
2021-03-06T22:39:56Z,1615070396,2021,22,40,65.9444,65.9444,71.21585,-145.23368,-999.00,-999.00,-999.0,no,no,no,300534061098040,unknown,unknown,unknown,North
2021-03-06T22:50:00Z,1615071001,2021,22,50,65.9514,65.9514,71.23388,-144.87452,-999.00,-999.00,-999.0,no,no,no,300534061098040,unknown,unknown,unknown,North
2021-03-06T22:59:57Z,1615071597,2021,23,0,65.9583,65.9583,71.19198,-145.10674,-999.00,-999.00,-999.0,no,no,no,300534061098040,unknown,unknown,unknown,North
2021-03-06T23:10:01Z,1615072202,2021,23,10,65.9653,65.9653,71.18733,-145.04634,-999.00,-999.00,-999.0,no,no,no,300534061098040,unknown,unknown,unknown,North
2021-03-13T02:15:04Z,1615601704,2021,2,15,72.0938,72.0938,71.38695,-146.48145,-999.00,-999.00,-999.0,no,no,no,300534061098040,unknown,unknown,unknown,North
2021-03-13T02:19:58Z,1615601998,2021,2,20,72.0972,72.0972,71.27931,-146.65204,-999.00,-999.00,-999.0,no,no,no,300534061098040,unknown,unknown,unknown,North
2021-03-13T02:30:02Z,1615602603,2021,2,30,72.1042,72.1042,71.06633,-147.00328,-999.00,-999.00,-999.0,no,no,no,300534061098040,unknown,unknown,unknown,North
2021-03-13T02:39:59Z,1615603199,2021,2,40,72.1111,72.1111,70.85802,-147.35525,-999.00,-999.00,-999.0,no,no,no,300534061098040,unknown,unknown,unknown,North
2021-03-13T02:50:03Z,1615603804,2021,2,50,72.1181,72.1181,70.69192,-147.61953,-999.00,-999.00,-999.0,no,no,no,300534061098040,unknown,unknown,unknown,North
2021-03-13T03:00:00Z,1615604400,2021,3,0,72.125,72.125,70.69194,-147.61981,-999.00,-999.00,-999.0,no,no,no,300534061098040,unknown,unknown,unknown,North
2021-03-13T03:09:56Z,1615604996,2021,3,10,72.1319,72.1319,70.69196,-147.62005,-999.00,-999.00,-999.0,no,no,no,300534061098040,unknown,unknown,unknown,North
2021-03-13T03:20:00Z,1615605601,2021,3,20,72.1389,72.1389,70.69199,-147.62035,-999.00,-999.00,-999.0,no,no,no,300534061098040,unknown,unknown,unknown,North
2021-03-13T03:29:57Z,1615606197,2021,3,30,72.1458,72.1458,70.69201,-147.6206,-999.00,-999.00,-999.0,no,no,no,300534061098040,unknown,unknown,unknown,North
2021-03-13T03:40:01Z,1615606802,2021,3,40,72.1528,72.1528,70.69209,-147.621,-999.00,-999.00,-999.0,no,no,no,300534061098040,unknown,unknown,unknown,North
2021-03-13T03:49:58Z,1615607398,2021,3,50,72.1597,72.1597,70.69213,-147.62133,-999.00,-999.00,-999.0,no,no,no,300534061098040,unknown,unknown,unknown,North
2021-03-13T04:00:02Z,1615608003,2021,4,0,72.1667,72.1667,70.69217,-147.62168,-999.00,-999.00,-999.0,no,no,no,300534061098040,unknown,unknown,unknown,North
2021-03-13T04:09:59Z,1615608599,2021,4,10,72.1736,72.1736,70.69221,-147.62203,-999.00,-999.00,-999.0,no,no,no,300534061098040,unknown,unknown,unknown,North
2021-03-13T04:20:03Z,1615609204,2021,4,20,72.1806,72.1806,70.69225,-147.62235,-999.00,-999.00,-999.0,no,no,no,300534061098040,unknown,unknown,unknown,North
2021-03-13T04:30:00Z,1615609800,2021,4,30,72.1875,72.1875,70.69231,-147.62267,-999.00,-999.00,-999.0,no,no,no,300534061098040,unknown,unknown,unknown,North
2021-03-13T04:39:56Z,1615610396,2021,4,40,72.1944,72.1944,70.69237,-147.62301,-999.00,-999.00,-999.0,no,no,no,300534061098040,unknown,unknown,unknown,North
2021-03-13T04:50:00Z,1615611001,2021,4,50,72.2014,72.2014,70.69241,-147.62333,-999.00,-999.00,-999.0,no,no,no,300534061098040,unknown,unknown,unknown,North
2021-03-13T04:59:57Z,1615611597,2021,5,0,72.2083,72.2083,70.69247,-147.62371,-999.00,-999.00,-999.0,no,no,no,300534061098040,unknown,unknown,unknown,North
2021-03-13T05:10:01Z,1615612202,2021,5,10,72.2153,72.2153,70.69253,-147.62407,-999.00,-999.00,-999.0,no,no,no,300534061098040,unknown,unknown,unknown,North
2021-03-13T05:19:58Z,1615612798,2021,5,20,72.2222,72.2222,70.69261,-147.62447,-999.00,-999.00,-999.0,no,no,no,300534061098040,unknown,unknown,unknown,North
2021-03-13T05:30:02Z,1615613403,2021,5,30,72.2292,72.2292,70.6927,-147.62492,-999.00,-999.00,-999.0,no,no,no,300534061098040,unknown,unknown,unknown,North
2021-03-13T05:39:59Z,1615613999,2021,5,40,72.2361,72.2361,70.69278,-147.62535,-999.00,-999.00,-999.0,no,no,no,300534061098040,unknown,unknown,unknown,North
2021-03-13T05:50:03Z,1615614604,2021,5,50,72.2431,72.2431,70.69288,-147.62575,-999.00,-999.00,-999.0,no,no,no,300534061098040,unknown,unknown,unknown,North
2021-03-13T06:00:00Z,1615615200,2021,6,0,72.25,72.25,70.69298,-147.62604,-999.00,-999.00,-999.0,no,no,no,300534061098040,unknown,unknown,unknown,North
2021-03-13T06:09:56Z,1615615796,2021,6,10,72.2569,72.2569,70.6931,-147.62659,-999.00,-999.00,-999.0,no,no,no,300534061098040,unknown,unknown,unknown,North
2021-03-13T06:20:00Z,1615616401,2021,6,20,72.2639,72.2639,70.6932,-147.62704,-999.00,-999.00,-999.0,no,no,no,300534061098040,unknown,unknown,unknown,North
2021-03-13T06:29:57Z,1615616997,2021,6,30,72.2708,72.2708,70.69331,-147.6275,-999.00,-999.00,-999.0,no,no,no,300534061098040,unknown,unknown,unknown,North
2021-03-13T06:40:01Z,1615617602,2021,6,40,72.2778,72.2778,70.6934,-147.62796,-999.00,-999.00,-999.0,no,no,no,300534061098040,unknown,unknown,unknown,North
2021-03-13T06:49:58Z,1615618198,2021,6,50,72.2847,72.2847,70.6935,-147.62846,-999.00,-999.00,-999.0,no,no,no,300534061098040,unknown,unknown,unknown,North
2021-03-13T07:00:02Z,1615618803,2021,7,0,72.2917,72.2917,70.69362,-147.62894,-999.00,-999.00,-999.0,no,no,no,300534061098040,unknown,unknown,unknown,North
2021-03-13T07:09:59Z,1615619399,2021,7,10,72.2986,72.2986,70.69373,-147.62936,-999.00,-999.00,-999.0,no,no,no,300534061098040,unknown,unknown,unknown,North
2021-03-13T07:20:03Z,1615620004,2021,7,20,72.3056,72.3056,70.69383,-147.62985,-999.00,-999.00,-999.0,no,no,no,300534061098040,unknown,unknown,unknown,North
2021-03-13T07:30:00Z,1615620600,2021,7,30,72.3125,72.3125,70.69395,-147.63042,-999.00,-999.00,-999.0,no,no,no,300534061098040,unknown,unknown,unknown,North
2021-03-13T07:39:56Z,1615621196,2021,7,40,72.3194,72.3194,70.69408,-147.63106,-999.00,-999.00,-999.0,no,no,no,300534061098040,unknown,unknown,unknown,North
2021-03-13T07:50:00Z,1615621801,2021,7,50,72.3264,72.3264,70.69419,-147.63159,-999.00,-999.00,-999.0,no,no,no,300534061098040,unknown,unknown,unknown,North
2021-03-13T07:59:57Z,1615622397,2021,8,0,72.3333,72.3333,70.69433,-147.63225,-999.00,-999.00,-999.0,no,no,no,300534061098040,unknown,unknown,unknown,North
2021-03-13T08:10:01Z,1615623002,2021,8,10,72.3403,72.3403,70.6945,-147.63301,-999.00,-999.00,-999.0,no,no,no,300534061098040,unknown,unknown,unknown,North
2021-03-13T08:19:58Z,1615623598,2021,8,20,72.3472,72.3472,70.69469,-147.63383,-999.00,-999.00,-999.0,no,no,no,300534061098040,unknown,unknown,unknown,North
2021-03-13T08:30:02Z,1615624203,2021,8,30,72.3542,72.3542,70.6949,-147.63469,-999.00,-999.00,-999.0,no,no,no,300534061098040,unknown,unknown,unknown,North
2021-03-13T08:39:59Z,1615624799,2021,8,40,72.3611,72.3611,70.69511,-147.63558,-999.00,-999.00,-999.0,no,no,no,300534061098040,unknown,unknown,unknown,North
2021-03-13T08:50:03Z,1615625404,2021,8,50,72.3681,72.3681,70.69533,-147.63652,-999.00,-999.00,-999.0,no,no,no,300534061098040,unknown,unknown,unknown,North
2021-03-13T09:00:00Z,1615626000,2021,9,0,72.375,72.375,70.69555,-147.63744,-999.00,-999.00,-999.0,no,no,no,300534061098040,unknown,unknown,unknown,North
2021-03-13T09:09:56Z,1615626596,2021,9,10,72.3819,72.3819,70.69577,-147.63843,-999.00,-999.00,-999.0,no,no,no,300534061098040,unknown,unknown,unknown,North
2021-03-13T09:20:00Z,1615627201,2021,9,20,72.3889,72.3889,70.69599,-147.63946,-999.00,-999.00,-999.0,no,no,no,300534061098040,unknown,unknown,unknown,North
2021-03-13T09:29:57Z,1615627797,2021,9,30,72.3958,72.3958,70.69622,-147.64051,-999.00,-999.00,-999.0,no,no,no,300534061098040,unknown,unknown,unknown,North
2021-03-13T09:40:01Z,1615628402,2021,9,40,72.4028,72.4028,70.69646,-147.64161,-999.00,-999.00,-999.0,no,no,no,300534061098040,unknown,unknown,unknown,North
2021-03-13T09:49:58Z,1615628998,2021,9,50,72.4097,72.4097,70.69669,-147.64277,-999.00,-999.00,-999.0,no,no,no,300534061098040,unknown,unknown,unknown,North
2021-03-13T10:00:02Z,1615629603,2021,10,0,72.4167,72.4167,70.69695,-147.64409,-999.00,-999.00,-999.0,no,no,no,300534061098040,unknown,unknown,unknown,North
2021-03-13T10:09:59Z,1615630199,2021,10,10,72.4236,72.4236,70.69719,-147.6454,-999.00,-999.00,-999.0,no,no,no,300534061098040,unknown,unknown,unknown,North
2021-03-13T10:20:03Z,1615630804,2021,10,20,72.4306,72.4306,70.69747,-147.64687,-999.00,-999.00,-999.0,no,no,no,300534061098040,unknown,unknown,unknown,North
2021-03-13T10:30:00Z,1615631400,2021,10,30,72.4375,72.4375,70.69776,-147.64847,-999.00,-999.00,-999.0,no,no,no,300534061098040,unknown,unknown,unknown,North
2021-03-13T10:39:56Z,1615631996,2021,10,40,72.4444,72.4444,70.69806,-147.65015,-999.00,-999.00,-999.0,no,no,no,300534061098040,unknown,unknown,unknown,North
2021-03-13T10:50:00Z,1615632601,2021,10,50,72.4514,72.4514,70.69838,-147.65194,-999.00,-999.00,-999.0,no,no,no,300534061098040,unknown,unknown,unknown,North
2021-03-13T10:59:57Z,1615633197,2021,11,0,72.4583,72.4583,70.69873,-147.65379,-999.00,-999.00,-999.0,no,no,no,300534061098040,unknown,unknown,unknown,North
2021-03-13T11:10:01Z,1615633802,2021,11,10,72.4653,72.4653,70.69912,-147.65569,-999.00,-999.00,-999.0,no,no,no,300534061098040,unknown,unknown,unknown,North
2021-03-13T11:19:58Z,1615634398,2021,11,20,72.4722,72.4722,70.69951,-147.65762,-999.00,-999.00,-999.0,no,no,no,300534061098040,unknown,unknown,unknown,North
2021-03-13T11:30:02Z,1615635003,2021,11,30,72.4792,72.4792,70.69992,-147.65961,-999.00,-999.00,-999.0,no,no,no,300534061098040,unknown,unknown,unknown,North
2021-03-13T11:39:59Z,1615635599,2021,11,40,72.4861,72.4861,70.70036,-147.66162,-999.00,-999.00,-999.0,no,no,no,300534061098040,unknown,unknown,unknown,North
2021-03-13T11:50:03Z,1615636204,2021,11,50,72.4931,72.4931,70.7008,-147.66363,-999.00,-999.00,-999.0,no,no,no,300534061098040,unknown,unknown,unknown,North
2021-03-13T12:00:00Z,1615636800,2021,12,0,72.5,72.5,70.70126,-147.66566,-999.00,-999.00,-999.0,no,no,no,300534061098040,unknown,unknown,unknown,North
2021-03-13T12:09:56Z,1615637396,2021,12,10,72.5069,72.5069,70.70173,-147.66771,-999.00,-999.00,-999.0,no,no,no,300534061098040,unknown,unknown,unknown,North
2021-03-13T12:20:00Z,1615638001,2021,12,20,72.5139,72.5139,70.7022,-147.66981,-999.00,-999.00,-999.0,no,no,no,300534061098040,unknown,unknown,unknown,North
2021-03-13T12:29:57Z,1615638597,2021,12,30,72.5208,72.5208,70.70267,-147.67192,-999.00,-999.00,-999.0,no,no,no,300534061098040,unknown,unknown,unknown,North
2021-03-13T12:40:01Z,1615639202,2021,12,40,72.5278,72.5278,70.70313,-147.67404,-999.00,-999.00,-999.0,no,no,no,300534061098040,unknown,unknown,unknown,North
2021-03-13T12:49:58Z,1615639798,2021,12,50,72.5347,72.5347,70.70361,-147.67619,-999.00,-999.00,-999.0,no,no,no,300534061098040,unknown,unknown,unknown,North
2021-03-13T13:00:02Z,1615640403,2021,13,0,72.5417,72.5417,70.70409,-147.67838,-999.00,-999.00,-999.0,no,no,no,300534061098040,unknown,unknown,unknown,North
2021-03-13T13:09:59Z,1615640999,2021,13,10,72.5486,72.5486,70.70454,-147.68069,-999.00,-999.00,-999.0,no,no,no,300534061098040,unknown,unknown,unknown,North
2021-03-13T13:20:03Z,1615641604,2021,13,20,72.5556,72.5556,70.70507,-147.6828,-999.00,-999.00,-999.0,no,no,no,300534061098040,unknown,unknown,unknown,North
2021-03-13T13:30:00Z,1615642200,2021,13,30,72.5625,72.5625,70.70559,-147.68504,-999.00,-999.00,-999.0,no,no,no,300534061098040,unknown,unknown,unknown,North
2021-03-13T13:39:56Z,1615642796,2021,13,40,72.5694,72.5694,70.70606,-147.68718,-999.00,-999.00,-999.0,no,no,no,300534061098040,unknown,unknown,unknown,North
2021-03-13T13:50:00Z,1615643401,2021,13,50,72.5764,72.5764,70.70656,-147.68946,-999.00,-999.00,-999.0,no,no,no,300534061098040,unknown,unknown,unknown,North
2021-03-13T13:59:57Z,1615643997,2021,14,0,72.5833,72.5833,70.70708,-147.69182,-999.00,-999.00,-999.0,no,no,no,300534061098040,unknown,unknown,unknown,North
2021-03-13T14:10:01Z,1615644602,2021,14,10,72.5903,72.5903,70.70761,-147.69422,-999.00,-999.00,-999.0,no,no,no,300534061098040,unknown,unknown,unknown,North
2021-03-13T14:19:58Z,1615645198,2021,14,20,72.5972,72.5972,70.70816,-147.69665,-999.00,-999.00,-999.0,no,no,no,300534061098040,unknown,unknown,unknown,North
2021-03-13T14:30:02Z,1615645803,2021,14,30,72.6042,72.6042,70.70872,-147.69913,-999.00,-999.00,-999.0,no,no,no,300534061098040,unknown,unknown,unknown,North
2021-03-13T14:39:59Z,1615646399,2021,14,40,72.6111,72.6111,70.70929,-147.70161,-999.00,-999.00,-999.0,no,no,no,300534061098040,unknown,unknown,unknown,North
2021-03-13T14:50:03Z,1615647004,2021,14,50,72.6181,72.6181,70.70989,-147.70414,-999.00,-999.00,-999.0,no,no,no,300534061098040,unknown,unknown,unknown,North
2021-03-13T15:00:00Z,1615647600,2021,15,0,72.625,72.625,70.71051,-147.70662,-999.00,-999.00,-999.0,no,no,no,300534061098040,unknown,unknown,unknown,North
2021-03-13T15:09:56Z,1615648196,2021,15,10,72.6319,72.6319,70.7111,-147.70917,-999.00,-999.00,-999.0,no,no,no,300534061098040,unknown,unknown,unknown,North
2021-03-13T15:20:00Z,1615648801,2021,15,20,72.6389,72.6389,70.7117,-147.71163,-999.00,-999.00,-999.0,no,no,no,300534061098040,unknown,unknown,unknown,North
2021-03-13T15:29:57Z,1615649397,2021,15,30,72.6458,72.6458,70.71232,-147.71401,-999.00,-999.00,-999.0,no,no,no,300534061098040,unknown,unknown,unknown,North
2021-03-13T15:40:01Z,1615650002,2021,15,40,72.6528,72.6528,70.71294,-147.71634,-999.00,-999.00,-999.0,no,no,no,300534061098040,unknown,unknown,unknown,North
2021-03-13T15:49:58Z,1615650598,2021,15,50,72.6597,72.6597,70.71356,-147.7186,-999.00,-999.00,-999.0,no,no,no,300534061098040,unknown,unknown,unknown,North
2021-03-13T16:00:02Z,1615651203,2021,16,0,72.6667,72.6667,70.71421,-147.72096,-999.00,-999.00,-999.0,no,no,no,300534061098040,unknown,unknown,unknown,North
2021-03-13T16:09:59Z,1615651799,2021,16,10,72.6736,72.6736,70.7148,-147.723,-999.00,-999.00,-999.0,no,no,no,300534061098040,unknown,unknown,unknown,North
2021-03-13T16:20:03Z,1615652404,2021,16,20,72.6806,72.6806,70.71541,-147.72507,-999.00,-999.00,-999.0,no,no,no,300534061098040,unknown,unknown,unknown,North
2021-03-13T16:30:00Z,1615653000,2021,16,30,72.6875,72.6875,70.71604,-147.7271,-999.00,-999.00,-999.0,no,no,no,300534061098040,unknown,unknown,unknown,North
2021-03-13T16:39:56Z,1615653596,2021,16,40,72.6944,72.6944,70.71667,-147.72906,-999.00,-999.00,-999.0,no,no,no,300534061098040,unknown,unknown,unknown,North
2021-03-13T16:50:00Z,1615654201,2021,16,50,72.7014,72.7014,70.71731,-147.73098,-999.00,-999.00,-999.0,no,no,no,300534061098040,unknown,unknown,unknown,North
2021-03-13T16:59:57Z,1615654797,2021,17,0,72.7083,72.7083,70.71794,-147.73285,-999.00,-999.00,-999.0,no,no,no,300534061098040,unknown,unknown,unknown,North
2021-03-13T17:10:01Z,1615655402,2021,17,10,72.7153,72.7153,70.71858,-147.73469,-999.00,-999.00,-999.0,no,no,no,300534061098040,unknown,unknown,unknown,North
2021-03-13T17:19:58Z,1615655998,2021,17,20,72.7222,72.7222,70.71922,-147.73651,-999.00,-999.00,-999.0,no,no,no,300534061098040,unknown,unknown,unknown,North
2021-03-13T17:30:02Z,1615656603,2021,17,30,72.7292,72.7292,70.71989,-147.73822,-999.00,-999.00,-999.0,no,no,no,300534061098040,unknown,unknown,unknown,North
2021-03-13T17:39:59Z,1615657199,2021,17,40,72.7361,72.7361,70.72049,-147.74012,-999.00,-999.00,-999.0,no,no,no,300534061098040,unknown,unknown,unknown,North
2021-03-13T17:50:03Z,1615657804,2021,17,50,72.7431,72.7431,70.72111,-147.74187,-999.00,-999.00,-999.0,no,no,no,300534061098040,unknown,unknown,unknown,North
2021-03-13T18:00:00Z,1615658400,2021,18,0,72.75,72.75,70.72172,-147.74358,-999.00,-999.00,-999.0,no,no,no,300534061098040,unknown,unknown,unknown,North
2021-03-13T18:09:56Z,1615658996,2021,18,10,72.7569,72.7569,70.72234,-147.74527,-999.00,-999.00,-999.0,no,no,no,300534061098040,unknown,unknown,unknown,North
2021-03-13T18:20:00Z,1615659601,2021,18,20,72.7639,72.7639,70.72292,-147.74691,-999.00,-999.00,-999.0,no,no,no,300534061098040,unknown,unknown,unknown,North
2021-03-13T18:29:57Z,1615660197,2021,18,30,72.7708,72.7708,70.72364,-147.74869,-999.00,-999.00,-999.0,no,no,no,300534061098040,unknown,unknown,unknown,North
2021-03-13T18:40:01Z,1615660802,2021,18,40,72.7778,72.7778,70.72423,-147.75022,-999.00,-999.00,-999.0,no,no,no,300534061098040,unknown,unknown,unknown,North
2021-03-13T18:49:58Z,1615661398,2021,18,50,72.7847,72.7847,70.72485,-147.75184,-999.00,-999.00,-999.0,no,no,no,300534061098040,unknown,unknown,unknown,North
2021-03-13T19:00:02Z,1615662003,2021,19,0,72.7917,72.7917,70.72547,-147.75348,-999.00,-999.00,-999.0,no,no,no,300534061098040,unknown,unknown,unknown,North
2021-03-13T19:09:59Z,1615662599,2021,19,10,72.7986,72.7986,70.72608,-147.75511,-999.00,-999.00,-999.0,no,no,no,300534061098040,unknown,unknown,unknown,North
2021-03-13T19:20:03Z,1615663204,2021,19,20,72.8056,72.8056,70.7267,-147.75676,-999.00,-999.00,-999.0,no,no,no,300534061098040,unknown,unknown,unknown,North
2021-03-13T19:30:00Z,1615663800,2021,19,30,72.8125,72.8125,70.72733,-147.75842,-999.00,-999.00,-999.0,no,no,no,300534061098040,unknown,unknown,unknown,North
2021-03-13T19:39:56Z,1615664396,2021,19,40,72.8194,72.8194,70.72794,-147.76009,-999.00,-999.00,-999.0,no,no,no,300534061098040,unknown,unknown,unknown,North
2021-03-13T19:50:00Z,1615665001,2021,19,50,72.8264,72.8264,70.72855,-147.76178,-999.00,-999.00,-999.0,no,no,no,300534061098040,unknown,unknown,unknown,North
2021-03-13T19:59:57Z,1615665597,2021,20,0,72.8333,72.8333,70.72919,-147.76344,-999.00,-999.00,-999.0,no,no,no,300534061098040,unknown,unknown,unknown,North
2021-03-13T20:10:01Z,1615666202,2021,20,10,72.8403,72.8403,70.7298,-147.76533,-999.00,-999.00,-999.0,no,no,no,300534061098040,unknown,unknown,unknown,North
2021-03-13T20:19:58Z,1615666798,2021,20,20,72.8472,72.8472,70.73044,-147.76722,-999.00,-999.00,-999.0,no,no,no,300534061098040,unknown,unknown,unknown,North
2021-03-13T20:30:02Z,1615667403,2021,20,30,72.8542,72.8542,70.73106,-147.76906,-999.00,-999.00,-999.0,no,no,no,300534061098040,unknown,unknown,unknown,North
2021-03-13T20:39:59Z,1615667999,2021,20,40,72.8611,72.8611,70.73167,-147.77084,-999.00,-999.00,-999.0,no,no,no,300534061098040,unknown,unknown,unknown,North
2021-03-13T20:50:03Z,1615668604,2021,20,50,72.8681,72.8681,70.73228,-147.7726,-999.00,-999.00,-999.0,no,no,no,300534061098040,unknown,unknown,unknown,North
2021-03-13T21:00:00Z,1615669200,2021,21,0,72.875,72.875,70.73289,-147.77431,-999.00,-999.00,-999.0,no,no,no,300534061098040,unknown,unknown,unknown,North
2021-03-13T21:09:56Z,1615669796,2021,21,10,72.8819,72.8819,70.73351,-147.77598,-999.00,-999.00,-999.0,no,no,no,300534061098040,unknown,unknown,unknown,North
2021-03-13T21:20:00Z,1615670401,2021,21,20,72.8889,72.8889,70.73414,-147.77762,-999.00,-999.00,-999.0,no,no,no,300534061098040,unknown,unknown,unknown,North
2021-03-13T21:29:57Z,1615670997,2021,21,30,72.8958,72.8958,70.73477,-147.77924,-999.00,-999.00,-999.0,no,no,no,300534061098040,unknown,unknown,unknown,North
2021-03-13T21:40:01Z,1615671602,2021,21,40,72.9028,72.9028,70.73539,-147.78089,-999.00,-999.00,-999.0,no,no,no,300534061098040,unknown,unknown,unknown,North
2021-03-13T21:49:58Z,1615672198,2021,21,50,72.9097,72.9097,70.73604,-147.78265,-999.00,-999.00,-999.0,no,no,no,300534061098040,unknown,unknown,unknown,North
2021-03-13T22:00:02Z,1615672803,2021,22,0,72.9167,72.9167,70.73672,-147.78454,-999.00,-999.00,-999.0,no,no,no,300534061098040,unknown,unknown,unknown,North
2021-03-13T22:09:59Z,1615673399,2021,22,10,72.9236,72.9236,70.73733,-147.78621,-999.00,-999.00,-999.0,no,no,no,300534061098040,unknown,unknown,unknown,North
2021-03-13T22:20:03Z,1615674004,2021,22,20,72.9306,72.9306,70.73797,-147.78798,-999.00,-999.00,-999.0,no,no,no,300534061098040,unknown,unknown,unknown,North
2021-03-13T22:30:00Z,1615674600,2021,22,30,72.9375,72.9375,70.73864,-147.7898,-999.00,-999.00,-999.0,no,no,no,300534061098040,unknown,unknown,unknown,North
2021-03-13T22:39:56Z,1615675196,2021,22,40,72.9444,72.9444,70.73933,-147.79154,-999.00,-999.00,-999.0,no,no,no,300534061098040,unknown,unknown,unknown,North
2021-03-13T22:50:00Z,1615675801,2021,22,50,72.9514,72.9514,70.74006,-147.79325,-999.00,-999.00,-999.0,no,no,no,300534061098040,unknown,unknown,unknown,North
2021-03-13T22:59:57Z,1615676397,2021,23,0,72.9583,72.9583,70.74079,-147.79501,-999.00,-999.00,-999.0,no,no,no,300534061098040,unknown,unknown,unknown,North
2021-03-13T23:10:01Z,1615677002,2021,23,10,72.9653,72.9653,70.7415,-147.79684,-999.00,-999.00,-999.0,no,no,no,300534061098040,unknown,unknown,unknown,North
2021-03-13T23:19:58Z,1615677598,2021,23,20,72.9722,72.9722,70.74222,-147.79891,-999.00,-999.00,-999.0,no,no,no,300534061098040,unknown,unknown,unknown,North
2021-03-13T23:30:02Z,1615678203,2021,23,30,72.9792,72.9792,70.74289,-147.80076,-999.00,-999.00,-999.0,no,no,no,300534061098040,unknown,unknown,unknown,North
2021-03-13T23:39:59Z,1615678799,2021,23,40,72.9861,72.9861,70.74361,-147.80263,-999.00,-999.00,-999.0,no,no,no,300534061098040,unknown,unknown,unknown,North
2021-03-13T23:50:03Z,1615679404,2021,23,50,72.9931,72.9931,70.74428,-147.80444,-999.00,-999.00,-999.0,no,no,no,300534061098040,unknown,unknown,unknown,North
2021-03-14T00:00:00Z,1615680000,2021,0,0,73.0,73.0,70.74495,-147.80622,-999.00,-999.00,-999.0,no,no,no,300534061098040,unknown,unknown,unknown,North
2021-03-14T00:09:56Z,1615680596,2021,0,10,73.0069,73.0069,70.74566,-147.80797,-999.00,-999.00,-999.0,no,no,no,300534061098040,unknown,unknown,unknown,North
2021-03-14T00:20:00Z,1615681201,2021,0,20,73.0139,73.0139,70.74639,-147.80971,-999.00,-999.00,-999.0,no,no,no,300534061098040,unknown,unknown,unknown,North
2021-03-14T00:29:57Z,1615681797,2021,0,30,73.0208,73.0208,70.74711,-147.81143,-999.00,-999.00,-999.0,no,no,no,300534061098040,unknown,unknown,unknown,North
2021-03-14T00:40:01Z,1615682402,2021,0,40,73.0278,73.0278,70.74782,-147.81314,-999.00,-999.00,-999.0,no,no,no,300534061098040,unknown,unknown,unknown,North
2021-03-14T00:49:58Z,1615682998,2021,0,50,73.0347,73.0347,70.74851,-147.8148,-999.00,-999.00,-999.0,no,no,no,300534061098040,unknown,unknown,unknown,North
2021-03-14T01:00:02Z,1615683603,2021,1,0,73.0417,73.0417,70.74924,-147.81649,-999.00,-999.00,-999.0,no,no,no,300534061098040,unknown,unknown,unknown,North
2021-03-14T01:09:59Z,1615684199,2021,1,10,73.0486,73.0486,70.74989,-147.81803,-999.00,-999.00,-999.0,no,no,no,300534061098040,unknown,unknown,unknown,North
2021-03-14T01:20:03Z,1615684804,2021,1,20,73.0556,73.0556,70.75056,-147.81985,-999.00,-999.00,-999.0,no,no,no,300534061098040,unknown,unknown,unknown,North
2021-03-14T01:30:00Z,1615685400,2021,1,30,73.0625,73.0625,70.75117,-147.82149,-999.00,-999.00,-999.0,no,no,no,300534061098040,unknown,unknown,unknown,North
2021-03-14T01:39:56Z,1615685996,2021,1,40,73.0694,73.0694,70.7518,-147.82304,-999.00,-999.00,-999.0,no,no,no,300534061098040,unknown,unknown,unknown,North
2021-03-14T01:50:00Z,1615686601,2021,1,50,73.0764,73.0764,70.7524,-147.82462,-999.00,-999.00,-999.0,no,no,no,300534061098040,unknown,unknown,unknown,North